[[{"header":{"parameterUnit":"m.s-1","parameterCategory":1,"la1":30.2992,"la2":30.254,"lo1":-89.0895,"lo2":-89.0443,"dy":0.0025,"dx":0.0025,"nx":19,"ny":19,"refTime":"2026-05-23T03:00:00:Z","depth":0,"parameterNumber":2,"parameterNumberName":"U-component_of_WINDS"},"data":[0,0,0,-1.177,-1.1774,-1.2009,-1.201,-1.2307,-1.2309,0,0,0,0,0,0,0,0,0,0,0,-1.1686,-1.1687,-1.1769,-1.1775,-1.2009,-1.2011,-1.2306,-1.2309,0,0,0,0,0,0,0,0,0,0,0,-1.1685,-1.1687,-1.1689,-1.1776,-1.2009,-1.2011,-1.2306,-1.2133,0,0,0,0,0,0,0,0,0,0,-1.1907,-1.1812,-1.1687,-1.1689,-1.1777,-1.2009,-1.2011,-1.2125,-1.2144,-1.2195,0,-1.2226,0,-1.2271,-1.2328,-1.2329,0,0,0,-1.1789,-1.1796,-1.1871,-1.1689,-1.1779,-1.2008,-1.1908,-1.2136,-1.2157,-1.222,-1.223,-1.2242,-1.2276,-1.233,-1.2331,-1.255,-1.255,0,0,-1.1776,-1.1723,-1.1856,-1.1884,-1.1834,-1.19,-1.1915,-1.2149,-1.2161,-1.2231,-1.2249,-1.2281,-1.2331,-1.2334,-1.255,-1.255,0,0,0,-1.1729,-1.1714,-1.1783,-1.1871,-1.1913,-1.1906,-1.1923,-1.2151,-1.2177,-1.2252,-1.2284,-1.2333,-1.2336,-1.2549,-1.255,-1.2511,0,0,0,-1.1722,-1.1686,-1.1777,-1.1747,-1.1908,-1.2032,-1.192,-1.2161,-1.2189,-1.2283,-1.2333,-1.2339,-1.2549,-1.255,-1.2511,-1.2503,0,0,0,-1.1676,-1.1681,-1.1709,-1.1744,-1.1841,-1.203,-1.207,-1.2168,-1.2208,-1.2329,-1.234,-1.2549,-1.255,-1.2511,-1.2503,-1.2543,0,0,0,-1.1615,-1.1677,-1.1707,-1.1791,-1.1839,-1.2,-1.2069,-1.2195,-1.2294,-1.2335,-1.2549,-1.255,-1.2511,-1.2504,-1.2543,-1.2566,-1.257,0,0,-1.1664,-1.1681,-1.1735,-1.1768,-1.1908,-1.1968,-1.2109,-1.2255,-1.2323,-1.2474,-1.248,-1.2511,-1.2503,-1.2543,-1.2612,-1.2615,0,0,0,-1.1733,-1.177,-1.1819,-1.1904,-1.201,-1.2104,-1.2232,-1.2288,-1.2416,-1.2384,-1.2538,-1.2536,-1.2562,-1.2576,-1.2578,-1.2605,-1.2554,-1.2553,-1.2553,-1.173,-1.1802,-1.1896,-1.1996,-1.208,-1.221,-1.2288,-1.2386,-1.2443,-1.2478,-1.2523,-1.2554,-1.2568,-1.257,-1.2597,-1.2542,-1.2542,-1.2542,-1.2542,-1.181,-1.1875,-1.194,-1.2053,-1.2134,-1.2237,-1.2368,-1.2404,-1.2517,-1.2527,-1.2554,-1.2558,-1.257,-1.2599,-1.254,-1.254,-1.254,-1.254,-1.2541,-1.1815,-1.1859,-1.1917,-1.2047,-1.2142,-1.2248,-1.235,-1.2423,-1.2495,-1.2521,-1.2578,-1.2578,-1.2589,-1.2542,-1.2542,-1.2542,-1.2542,-1.2542,-1.2543,-1.1798,-1.1865,-1.1935,-1.205,-1.2115,-1.221,-1.2343,-1.2413,-1.2511,-1.2557,-1.2558,-1.2613,-1.2556,-1.254,-1.2545,-1.2544,-1.2544,-1.2544,-1.2544,-1.1852,-1.185,-1.1958,-1.2021,-1.2165,-1.2256,-1.2346,-1.2482,-1.2552,-1.2601,-1.2651,-1.2596,-1.2622,-1.2621,-1.2609,-1.2631,-1.2631,-1.2631,-1.2631,-1.1856,-1.1873,-1.2,-1.2097,-1.2201,-1.2293,-1.2424,-1.2531,-1.2643,-1.2693,-1.2701,-1.2691,-1.2686,-1.2716,-1.2713,-1.2703,-1.2749,-1.2749,-1.2749,-1.1894,-1.1924,-1.2015,-1.2112,-1.2231,-1.2334,-1.246,-1.2579,-1.2709,-1.2756,-1.2734,-1.2729,-1.2714,-1.2705,-1.275,-1.2744,-1.2726,0,0]},{"header":{"parameterUnit":"m.s-1","parameterCategory":1,"la1":30.2992,"la2":30.254,"lo1":-89.0895,"lo2":-89.0443,"dy":0.0025,"dx":0.0025,"nx":19,"ny":19,"refTime":"2026-05-23T03:00:00:Z","depth":0,"parameterNumber":3,"parameterNumberName":"V-component_of_WINDS"},"data":[0,0,0,1.6482,1.6485,1.6673,1.6673,1.6888,1.6889,0,0,0,0,0,0,0,0,0,0,0,1.6407,1.6408,1.6481,1.6486,1.6672,1.6674,1.6887,1.6889,0,0,0,0,0,0,0,0,0,0,0,1.6407,1.6408,1.6409,1.6486,1.6672,1.6674,1.6887,1.6756,0,0,0,0,0,0,0,0,0,0,1.6579,1.6491,1.6408,1.6409,1.6487,1.6672,1.6674,1.675,1.6764,1.6791,0,1.6806,0,1.685,1.6902,1.6902,0,0,0,1.6501,1.6479,1.6546,1.6409,1.6489,1.6672,1.6593,1.6758,1.6774,1.6809,1.681,1.6818,1.6854,1.6903,1.6904,1.6998,1.6997,0,0,1.6491,1.6432,1.6534,1.6555,1.652,1.6586,1.6598,1.6768,1.6766,1.681,1.6824,1.6858,1.6904,1.6905,1.6998,1.6998,0,0,0,1.6451,1.6424,1.6488,1.6545,1.658,1.6591,1.6605,1.6759,1.6784,1.6826,1.686,1.6905,1.6907,1.6998,1.6998,1.6924,0,0,0,1.6445,1.6401,1.6482,1.6448,1.6577,1.6671,1.6591,1.6772,1.6793,1.6859,1.6905,1.6909,1.6999,1.6998,1.6927,1.69,0,0,0,1.6402,1.6396,1.6416,1.6445,1.6522,1.667,1.6706,1.6778,1.6813,1.6902,1.691,1.6999,1.6998,1.693,1.6905,1.6907,0,0,0,1.634,1.6351,1.6414,1.644,1.652,1.6621,1.6705,1.6785,1.6852,1.6906,1.6999,1.6998,1.6931,1.6908,1.6909,1.6898,1.6887,0,0,1.6321,1.6347,1.6367,1.6428,1.6502,1.6598,1.6664,1.6784,1.6849,1.6945,1.6948,1.6926,1.6905,1.6908,1.685,1.684,0,0,0,1.6341,1.6354,1.6387,1.6446,1.6535,1.661,1.6725,1.677,1.6854,1.6884,1.693,1.6919,1.6923,1.6921,1.6913,1.692,1.6994,1.6994,1.6994,1.6232,1.631,1.6348,1.6448,1.6505,1.6622,1.6677,1.6757,1.6823,1.6832,1.6861,1.6816,1.6811,1.6805,1.6812,1.6862,1.6862,1.6862,1.6861,1.6212,1.6243,1.6326,1.6392,1.6476,1.6535,1.6648,1.6692,1.6761,1.6801,1.6809,1.6845,1.6793,1.6803,1.6857,1.6857,1.6858,1.6859,1.6859,1.6149,1.6178,1.6228,1.6321,1.6384,1.6487,1.6547,1.6623,1.6695,1.6702,1.6741,1.6743,1.6754,1.6715,1.6715,1.6715,1.6715,1.6715,1.6715,1.6064,1.6124,1.6163,1.6256,1.6303,1.6375,1.6492,1.6542,1.6618,1.6668,1.6669,1.6733,1.6773,1.6781,1.6713,1.6713,1.6713,1.6713,1.6714,1.6016,1.6038,1.6098,1.6144,1.626,1.6318,1.6412,1.6507,1.6559,1.6587,1.665,1.6666,1.6699,1.6706,1.6713,1.6632,1.6632,1.6632,1.6632,1.5962,1.5985,1.6063,1.6132,1.621,1.63,1.6368,1.6459,1.6558,1.6596,1.6619,1.6635,1.6638,1.667,1.6677,1.6685,1.6598,1.6598,1.6598,1.5937,1.597,1.6012,1.6104,1.6199,1.628,1.6347,1.6427,1.6544,1.6599,1.6627,1.6629,1.6656,1.666,1.6716,1.6726,1.6742,0,0]}]]